User: anonymous   Login
Location: Unspecified
(0.0000°N, 0.0000°E)
Time: 10:31:13
(UTC+00:00)
Language:

NOSS 3-1 (C) - Orbit

View from above orbital plane
View from above orbital plane
View from above satellite
View from above satellite

Ground track
Ground track

The orbit data is extracted from the following two-line orbital elements,

1 26907U 01040C   19104.13774161 0.00000000  00000-0  00000-0 0    07
2 26907  63.4113 125.8330 0435060   0.0284 359.9334 13.41293667    06
Epoch (UTC): 14 April 2019 03:18:20
Eccentricity: 0.0435060
inclination: 63.4113°
perigee height: 779 km
apogee height: 1430 km
right ascension of ascending node: 125.8330°
argument of perigee: 0.0284°
revolutions per day: 13.41293667
mean anomaly at epoch: 359.9334°
orbit number at epoch: 0

The dashed part of the orbit path shows where the satellite is in the earth's shadow,  

DLR